COSMOS 1275 DEB, 42180

Orbit data source: Space-Track

COSMOS 1275 DEB, 42180 is space debris in LEO originally from a launch on Thu, 04 Jun 1981 UTC launched from the Plesetsk Missile And Space Complex (PKMTR). Debris objects in space refer to the collection of defunct objects orbiting the Earth. Examples of debris include non-operational satellites, rocket bodies, and fragments generated from explosions, collisions, or faulty payload assembly.

Loading next visibility...
COSMOS 1275 DEB details
Identifier
42180, 1981-053SU
Orbit
LEO
Last TLE update15 hours ago
Origin
Flag of CISGUKOS (CIS)
ManufacturerUnknown
MissionSpacecraft
Bus & MotorUnknown
MassUnknown
Launch date (UTC)
1981-06-04 (44 years ago)
Launch vehicleUnknown
Launch site
Plesetsk Missile And Space Complex (PKMTR)
Object type
Payload
Rocket body
Debris
Shape & HBRUnknown
Radar Cross SectionSmall (<0.1 m²)

Expand to show TLE details & history

TLE from 15 hours ago
0 COSMOS 1275 DEB
1 42180U 81053SU  24348.51209295  .00030663  00000-0  69378-2 0  9999
2 42180  82.8670  80.6338 0001385 337.8484  34.1037 14.56018779547530
Epoch: 2024-12-13T12:17Z
Definitive object data (Epoch: 2024-12-13T12:17:24.83Z)
Latitude11.82206°
Longitude175.09623°
Altitude707.494 km
Speed7.503 km/s
True Right ascension05h 28m 30s
True Declination11° 45' 10"
Sunlit
Object was in full shadow at TLE epoch
Visualization TLE readout
Latitude62.66822°
Longitude-20.87829°
Altitude717.477 km
Speed7.502 km/s
Apparent Right ascension15h 03m 10s
Apparent Declination15° 45' 54"
Sunlit
Object is in daylight
Visualization observer readout
Local Sidereal Time02:09:32
Azimuth344.579° N
Elevation-32.934°
Doppler factor1
Orbital elements
Apogee altitude704.08 km
Perigee altitude702.118 km
Semi-major axis7,081.236 km
Eccentricity0.0001385
Inclination82.867°
RAAN80.6338°
Arg. of periapsis337.8484°
True anomaly34.1126°
Mean anomaly34.1037°
Eccentric anomaly34.10815°
Mean motion3.64233 °/min
BSTAR0.0069378
Orbital period98.84 mins
Loading maneuver chart data...
Loading historical data...
Loading historical data...
Loading historical data...
Loading historical data...
Loading historical data...
Loading historical data...
Loading historical data...

COSMOS 1275 DEB Visibility forecast

Observer location: undefined°, undefined

Span
Click to sort rows by Start time (UTC) header in descending order
Start Az.
Max El. time (UTC)
Max El. Az.
Max El.
End time (UTC)
End Az.
8 mins2024-12-14 06:29:47.463Z153.423° SSE2024-12-14 06:33:47.463Z85.583° E30.87°2024-12-14 06:37:47.463Z25.565° NE
6 mins2024-12-14 08:10:47.463Z247.764° W2024-12-14 08:13:47.463Z294.254° NW19.678°2024-12-14 08:16:47.463Z334.276° NNW
7 mins2024-12-14 18:30:47.463Z341.394° N2024-12-14 18:33:47.463Z269.072° W41.83°2024-12-14 18:37:47.463Z187.535° SSW
|